| time (UTC) | temp F | wind direction | speed knots | gust knots | rain 1hr in | rain 24hr in | rain mn in | humidity % | barometer mb |
| 20260504003058 | 61 | 0 | 0.0 | 1.7 | 0.00 | 0.00 | 0.00 | 71 | 1014.1 |
| 20260504001530 | 62 | 259 | 0.0 | 3.5 | 0.00 | 0.00 | 0.00 | 71 | 1014.0 |
| 20260504000030 | 62 | 0 | 0.0 | 3.5 | 0.00 | 0.00 | 0.00 | 70 | 1014.1 |
| 20260503234533 | 62 | 273 | 1.7 | 7.0 | 0.00 | 0.00 | 0.00 | 70 | 1014.1 |
| 20260503233027 | 62 | 278 | 0.9 | 5.2 | 0.00 | 0.00 | 0.00 | 69 | 1014.1 |
| 20260503231541 | 63 | 252 | 1.7 | 6.1 | 0.00 | 0.00 | 0.00 | 68 | 1014.3 |
| 20260503230028 | 63 | 246 | 1.7 | 7.8 | 0.00 | 0.00 | 0.00 | 68 | 1014.5 |
| 20260503224528 | 63 | 265 | 1.7 | 7.8 | 0.00 | 0.00 | 0.00 | 66 | 1015.0 |
| 20260503223030 | 64 | 171 | 1.7 | 8.7 | 0.00 | 0.00 | 0.00 | 66 | 1015.3 |
| 20260503221527 | 64 | 88 | 2.6 | 9.6 | 0.00 | 0.00 | 0.00 | 64 | 1015.0 |
| 20260503220035 | 65 | 261 | 2.6 | 13.0 | 0.00 | 0.00 | 0.00 | 66 | 1015.6 |
| 20260503214527 | 65 | 297 | 1.7 | 11.3 | 0.00 | 0.00 | 0.00 | 65 | 1015.7 |
| 20260503213049 | 65 | 284 | 3.5 | 8.7 | 0.00 | 0.00 | 0.00 | 66 | 1015.9 |
| 20260503211533 | 65 | 0 | 2.6 | 7.0 | 0.00 | 0.00 | 0.00 | 65 | 1015.5 |
| 20260503210030 | 65 | 275 | 2.6 | 9.6 | 0.00 | 0.00 | 0.00 | 67 | 1016.0 |
| 20260503204549 | 65 | 284 | 2.6 | 11.3 | 0.00 | 0.00 | 0.00 | 65 | 1016.0 |
| 20260503203033 | 65 | 271 | 2.6 | 9.6 | 0.00 | 0.00 | 0.00 | 68 | 1016.4 |
| 20260503201530 | 65 | 225 | 0.9 | 7.0 | 0.00 | 0.00 | 0.00 | 67 | 1016.5 |
| 20260503200031 | 64 | 273 | 2.6 | 8.7 | 0.00 | 0.00 | 0.00 | 68 | 1017.1 |
| 20260503194532 | 64 | 269 | 0.9 | 7.8 | 0.00 | 0.00 | 0.00 | 68 | 1017.3 |
| 20260503193032 | 63 | 271 | 1.7 | 7.0 | 0.00 | 0.00 | 0.00 | 70 | 1017.7 |
| 20260503191530 | 62 | 217 | 1.7 | 7.0 | 0.00 | 0.00 | 0.00 | 70 | 1018.1 |
| 20260503190029 | 61 | 273 | 0.9 | 6.1 | 0.00 | 0.00 | 0.00 | 72 | 1018.2 |
| 20260503184534 | 60 | 271 | 1.7 | 7.8 | 0.00 | 0.00 | 0.00 | 73 | 1018.3 |
| 20260503183040 | 59 | 280 | 1.7 | 9.6 | 0.00 | 0.00 | 0.00 | 74 | 1018.5 |
| 20260503181528 | 57 | 271 | 1.7 | 7.8 | 0.00 | 0.00 | 0.00 | 71 | 1018.9 |
| 20260503180034 | 56 | 265 | 0.9 | 6.1 | 0.00 | 0.00 | 0.00 | 66 | 1018.9 |
| 20260503174541 | 54 | 70 | 1.7 | 6.1 | 0.00 | 0.00 | 0.00 | 64 | 1019.3 |
| 20260503173027 | 53 | 272 | 1.7 | 8.7 | 0.00 | 0.00 | 0.00 | 66 | 1019.7 |
| 20260503171533 | 51 | 90 | 1.7 | 7.0 | 0.00 | 0.00 | 0.00 | 66 | 1019.9 |
| 20260503150114 | 48 | 0 | 1.7 | 6.1 | 0.00 | 0.00 | 0.00 | 65 | 1020.9 |
| 20260503081539 | 43 | 0 | 0.0 | 0.0 | 0.00 | 0.00 | 0.00 | 66 | 1019.8 |
| 20260503071550 | 44 | 0 | 0.0 | 0.0 | 0.00 | 0.00 | 0.00 | 65 | 1019.5 |
| 20260503054540 | 46 | 0 | 0.0 | 0.0 | 0.00 | 0.00 | 0.00 | 64 | 1019.8 |
| 20260503053030 | 46 | 0 | 0.0 | 0.0 | 0.00 | 0.00 | 0.00 | 64 | 1019.7 |
| 20260503051540 | 46 | 0 | 0.0 | 0.0 | 0.00 | 0.00 | 0.00 | 64 | 1019.7 |
| 20260503050029 | 47 | 0 | 0.0 | 0.0 | 0.00 | 0.00 | 0.00 | 63 | 1019.7 |
| 20260503044531 | 47 | 0 | 0.0 | 0.0 | 0.00 | 0.00 | 0.00 | 63 | 1019.6 |
| 20260503043028 | 47 | 0 | 0.0 | 0.0 | 0.00 | 0.00 | 0.00 | 63 | 1019.6 |
| 20260503041532 | 48 | 0 | 0.0 | 0.0 | 0.00 | 0.00 | 0.00 | 62 | 1019.5 |
| 20260503040027 | 48 | 0 | 0.0 | 0.0 | 0.00 | 0.00 | 0.00 | 62 | 1019.5 |
| 20260503034530 | 49 | 0 | 0.0 | 0.0 | 0.00 | 0.00 | 0.00 | 62 | 1019.5 |
| 20260503033030 | 49 | 0 | 0.0 | 0.0 | 0.00 | 0.00 | 0.00 | 62 | 1019.4 |
| 20260503031536 | 50 | 0 | 0.0 | 0.0 | 0.00 | 0.00 | 0.00 | 62 | 1019.4 |
| 20260503030033 | 50 | 0 | 0.0 | 0.9 | 0.00 | 0.00 | 0.00 | 62 | 1019.3 |
| 20260503024539 | 51 | 0 | 0.0 | 0.0 | 0.00 | 0.00 | 0.00 | 62 | 1019.0 |
| 20260503023030 | 51 | 0 | 0.0 | 0.0 | 0.00 | 0.00 | 0.00 | 64 | 1018.7 |
| 20260503021532 | 51 | 0 | 0.0 | 0.0 | 0.00 | 0.00 | 0.00 | 65 | 1018.8 |
| 20260503020032 | 51 | 0 | 0.0 | 0.0 | 0.00 | 0.00 | 0.00 | 66 | 1018.6 |
| 20260503014530 | 52 | 0 | 0.0 | 0.0 | 0.00 | 0.00 | 0.00 | 65 | 1018.4 |
| 20260503013034 | 52 | 0 | 0.0 | 0.0 | 0.00 | 0.00 | 0.00 | 66 | 1018.2 |
| 20260503011528 | 52 | 0 | 0.0 | 0.0 | 0.00 | 0.00 | 0.00 | 66 | 1018.1 |
| 20260503010032 | 53 | 0 | 0.0 | 0.0 | 0.00 | 0.00 | 0.00 | 68 | 1017.8 |
| 20260503004535 | 53 | 0 | 0.0 | 0.0 | 0.00 | 0.00 | 0.00 | 68 | 1017.8 |